Header for Extended Forecast Station List Page

Search by: ID | Name | Date | Parm | Value | Avg | % Avg
Sort by: ID | Name | Date | Parm | Value | Avg | % Avg

Enter search or view all records.

Click on id for station plot
#IDNameDateParmValueAvg% Avg
0BULO3BULLY CREEK-BULLY CREEK DAM10-12-2021INFLOW (KAF)32134
1MACI1BIG LOST-MACKAY RESERVOIR NEAR MACKAY10-12-2021INFLOW (KAF)246386
2RIDI1WILLOW CREEK-RIRIE DAM10-12-2021INFLOW (KAF)8895
3MYKO3MCKAY CREEK-NEAR PILOT ROCK10-12-2021DISCHARGE (KAF)1714117
4LWRI1LITTLE WOOD-LITTLE WOOD DAM10-12-2021INFLOW (KAF)101565
5BERO3MALHEUR-AGENCY VALLEY DAM10-12-2021INFLOW (KAF)91562
6WRMO3MALHEUR-WARM SPRINGS DAM10-12-2021INFLOW (KAF)161982
7DEDI1DEADWOOD-NEAR LOWMAN10-12-2021INFLOW (KAF)131967
8ARDW1ENTIAT-NEAR ARDENVOIR10-12-2021DISCHARGE (KAF)2622118
9HWRI1BIG LOST-AT HOWELL RANCH NEAR CHILLY10-12-2021DISCHARGE (KAF)142262
10HOTI1BRUNEAU-NEAR HOT SPRINGS10-12-2021DISCHARGE (KAF)212778
11MAGI1BIG WOOD-MAGIC DAM10-12-2021INFLOW (KAF)82731
12SATI1ST MARIES-NEAR SANTA10-12-2021DISCHARGE (KAF)123042
13GIBO3UMATILLA-NEAR GIBBON10-12-2021DISCHARGE (KAF)253181
14BUDW1BUMPING-BUMPING LAKE DAM10-12-2021INFLOW (KAF)323591
15TNAW1TEANAWAY-BELOW FORKS10-12-2021DISCHARGE (KAF)193651
16STRM8ST. REGIS-NEAR ST. REGIS10-12-2021DISCHARGE (KAF)173747
17BIGI1BOISE-AT GLENWOOD BRIDGE10-12-2021DISCHARGE (KAF)4537123
18HALI1BIG WOOD-AT HAILEY10-12-2021DISCHARGE (KAF)224155
19KADW1KACHESS-KACHESS DAM10-12-2021INFLOW (KAF)4744107
20RCCM8ROCK CREEK-NEAR CLINTON10-12-2021DISCHARGE (KAF)475093
21KEDW1YAKIMA-KEECHELUS LAKE10-12-2021INFLOW (KAF)5050100
22PIHI1PORTNEUF-AT POCATELLO10-12-2021DISCHARGE (KAF)376061
23DLGM8CLARK FORK-AT DEER LODGE10-12-2021DISCHARGE (KAF)476375
24EASW1YAKIMA-AT EASTON10-12-2021DISCHARGE (KAF)556584
25RILW1TIETON-RIMROCK LAKE NEAR RIMROCK10-12-2021INFLOW (KAF)416562
26WSRI1WEISER-NEAR WEISER10-12-2021DISCHARGE (KAF)306943
27PDTO3UMATILLA-AT PENDLETON10-12-2021DISCHARGE (KAF)656995
28UMAO3UMATILLA-NEAR UMATILLA10-12-2021DISCHARGE (KAF)10372142
29NACW1NACHES-NEAR NACHES10-12-2021DISCHARGE (KAF)717398
30ARAI1SF BOISE-ANDERSON RANCH DAM10-12-2021INFLOW (KAF)627483
31OWYO3OWYHEE-OWYHEE DAM10-12-2021INFLOW (KAF)497665
32MONO3NF JOHN DAY-AT MONUMENT10-12-2021DISCHARGE (KAF)539257
33CSDI1NF PAYETTE-CASCADE DAM10-12-2021INFLOW (KAF)679372
34PATW1METHOW-NEAR PATEROS10-12-2021DISCHARGE (KAF)8410084
35CLFW1NACHES-NEAR CLIFFDEL10-12-2021DISCHARGE (KAF)8510085
36CLUW1CLE ELUM-CLE ELUM LAKE10-12-2021INFLOW (KAF)121101119
37TCHW1WALLA WALLA-NEAR TOUCHET10-12-2021DISCHARGE (KAF)6510264
38TEAI1TETON-NEAR ST. ANTHONY10-12-2021DISCHARGE (KAF)9110785
39CHEI1FALL RIVER-NEAR CHESTER10-12-2021DISCHARGE (KAF)10711295
40JLKW4SNAKE-JACKSON LAKE AT DAM10-12-2021INFLOW (KAF)8311274
41IPDI1HENRYS FORK-ISLAND PARK DAM10-12-2021INFLOW (KAF)8111868
42LAUW1KETTLE-AT LAURIER10-12-2021DISCHARGE (KAF)8212864
43BONM8BLACKFOOT-NEAR BONNER10-12-2021DISCHARGE (KAF)10813779
44CHDW1CHELAN-LAKE CHELAN DAM10-12-2021INFLOW (KAF)270158171
45WGCM8MF FLATHEAD-NEAR WEST GLACIER10-12-2021DISCHARGE (KAF)5917334
46SERO3JOHN DAY-AT SERVICE CK10-12-2021DISCHARGE (KAF)11117564
47FCFM8NF FLATHEAD-NEAR COLUMBIA FALLS10-12-2021DISCHARGE (KAF)12719764
48PARI1BOISE-NEAR PARMA10-12-2021DISCHARGE (KAF)17521083
49HODO3HOOD-NEAR TUCKER BRIDGE10-12-2021DISCHARGE (KAF)20621496
50UNDW1WHITE SALMON-NEAR UNDERWOOD10-12-2021DISCHARGE (KAF)18522682
51BITM8BITTERROOT-NEAR MISSOULA10-12-2021DISCHARGE (KAF)11923152
52PRTI1PRIEST-NEAR PRIEST RIVER10-12-2021DISCHARGE (KAF)16223769
53UMTW1YAKIMA-AT UMTANUM10-12-2021DISCHARGE (KAF)20024382
54HHWM8SF FLATHEAD-HUNGRY HORSE DAM10-12-2021INFLOW (KAF)14224658
55PITW1KLICKITAT-NEAR PITT10-12-2021DISCHARGE (KAF)23026487
56TRYO3GRANDE RONDE-TROY10-12-2021DISCHARGE (KAF)15927957
57TONW1OKANOGAN-NEAR TONASKET10-12-2021DISCHARGE (KAF)22328279
58PESW1WENATCHEE-AT PESHASTIN10-12-2021DISCHARGE (KAF)299294102
59JKSW4SNAKE-NEAR JACKSON10-12-2021DISCHARGE (KAF)26231683
60ANTI1HENRYS FORK-AT ST. ANTHONY10-12-2021DISCHARGE (KAF)31334192
61EMMI1PAYETTE-NEAR EMMETT10-12-2021DISCHARGE (KAF)22334764
62ABOM8CLARK FORK-ABOVE MISSOULA10-12-2021DISCHARGE (KAF)28334981
63ALPW4SNAKE-NEAR ALPINE10-12-2021DISCHARGE (KAF)32140180
64REXI1HENRYS FORK-AT REXBURG10-12-2021DISCHARGE (KAF)40043393
65PARW1YAKIMA-NEAR PARKER10-12-2021DISCHARGE (KAF)33143876
66DWRI1NF CLEARWATER-DWORSHAK DAM10-12-2021INFLOW (KAF)21348644
67MILI1SNAKE-AT MILNER10-12-2021DISCHARGE (KAF)M533M
68BELM8CLARK FORK-BELOW MISSOULA10-12-2021DISCHARGE (KAF)40258469
69COEI1COEUR D ALENE-COEUR D ALENE LAKE10-12-2021INFLOW (KAF)23761738
70HEII1SNAKE-NEAR HEISE10-12-2021DISCHARGE (KAF)31361851
71ORFI1CLEARWATER-AT OROFINO10-12-2021DISCHARGE (KAF)31164248
72PLDI1SF SNAKE-PALISADES DAM10-12-2021INFLOW (KAF)52264781
73KIOW1YAKIMA-AT KIONA10-12-2021DISCHARGE (KAF)49167473
74SNAI1SNAKE-AT BLACKFOOT10-12-2021DISCHARGE (KAF)42972359
75SRGM8CLARK FORK-AT ST REGIS10-12-2021DISCHARGE (KAF)51176167
76BFTI1SNAKE-NEAR BLACKFOOT10-12-2021DISCHARGE (KAF)45078058
77SHYI1SNAKE-NEAR SHELLEY10-12-2021DISCHARGE (KAF)51680464
78SIFI1SNAKE-AB EAGLE ROCK NR IDAHO FALLS10-12-2021DISCHARGE (KAF)52482264
79LYDM8KOOTENAI-LIBBY DAM10-12-2021INFLOW (KAF)76293582
80LLKW1SPOKANE-AT LONGLAKE10-12-2021INFLOW (KAF)524107549
81WHBI1SALMON-AT WHITEBIRD10-12-2021DISCHARGE (KAF)705109065
82CFMM8FLATHEAD-AT COLUMBIA FALLS10-12-2021DISCHARGE (KAF)864119672
83MODO3DESCHUTES-AT MOODY NR BIGGS10-12-2021DISCHARGE (KAF)1319136597
84AFRI1SNAKE-AMERICAN FALLS RESERVOIR10-12-2021INFLOW (KAF)1103146975
85KERM8FLATHEAD-SELI’Š KSANKA QLISPE’ DAM10-12-2021INFLOW (KAF)931150462
86SPDI1CLEARWATER-AT SPALDING10-12-2021DISCHARGE (KAF)739153348
87LEOI1KOOTENAI-AT LEONIA10-12-2021DISCHARGE (KAF)25351616157
88SWAI1SNAKE-BELOW SWAN FALLS10-12-2021DISCHARGE (KAF)1776254870
89NOXM8CLARK FORK-NOXON RAPIDS DAM10-12-2021INFLOW (KAF)1882348254
90WEII1SNAKE-AT WEISER10-12-2021DISCHARGE (KAF)2501360069
91CABI1CLARK FORK-CABINET GORGE DAM10-12-2021INFLOW (KAF)2063363357
92BRNI1SNAKE-BROWNLEE DAM10-12-2021INFLOW (KAF)2659369972
93ALFW1PEND OREILLE-ALBENI FALLS DAM10-12-2021INFLOW (KAF)2311422755
94ANAW1SNAKE-NEAR ANATONE10-12-2021DISCHARGE (KAF)3261559458
95LGDW1SNAKE-LOWER GRANITE DAM10-12-2021INFLOW (KAF)4002733855
96IHDW1SNAKE-ICE HARBOR DAM10-12-2021INFLOW (KAF)4028737555
97LGSW1SNAKE-LITTLE GOOSE DAM10-12-2021INFLOW (KAF)4001739154
98LMNW1SNAKE-LOWER MONUMENTAL DAM10-12-2021INFLOW (KAF)4028745154
99GCDW1COLUMBIA-GRAND COULEE DAM10-12-2021INFLOW (KAF)1767517380102
100WANW1COLUMBIA-WANAPUM DAM10-12-2021INFLOW (KAF)2118219612108
101PRWW1COLUMBIA-PRIEST RAPIDS DAM10-12-2021INFLOW (KAF)2118019935106
102CHJW1COLUMBIA-CHIEF JOSEPH DAM10-12-2021INFLOW (KAF)201052112995
103WELW1COLUMBIA-WELLS DAM10-12-2021INFLOW (KAF)204102148095
104RRHW1COLUMBIA-ROCKY REACH DAM10-12-2021INFLOW (KAF)208222199495
105MCDW1COLUMBIA-MCNARY DAM10-12-2021INFLOW (KAF)257202924688
106JDAO3COLUMBIA-JOHN DAY DAM10-12-2021INFLOW (KAF)267943010889
107TDAO3COLUMBIA-THE DALLES DAM10-12-2021INFLOW (KAF)274913346782
108BONO3COLUMBIA-BONNEVILLE DAM10-12-2021INFLOW (KAF)281043548179
109BFEI1KOOTENAI-AT BONNERS FERRY10-12-2021STAGE (FT)MMM
110DRMM8CLARK FORK-NR DRUMMOND10-12-2021DISCHARGE (KAF)117MM
111HOPI1PEND OREILLE-PEND OREILLE LAKE NR HOPE10-12-2021LAKE ELEVATION (FT)MMM
112SPOW1SPOKANE-AT SPOKANE10-12-2021DISCHARGE (KAF)350MM
113SJMI1ST JOE-AT ST MARIES10-12-2021STAGE (FT)MMM
114CIBW1COLUMBIA-AT INTL BOUNDARY10-12-2021DISCHARGE (KAF)17039MM
115LUCI1BOISE-LUCKY PEAK DAM10-12-2021INFLOW (KAF)31MM